Torna al catalogo

SL-3 DEB

AttivoPO
NORAD 8110·DEBRIS·🇷🇺 Russia

Lanciato Jul 11, 1975 da Plesetsk Cosmodrome

Loading…

Prossimi Passaggi (prossime 24 ore)

TLE

AggiornatoSource: Space-Track

Epoca: Sep 13, 2026, 20:50 UTC

1 08110U 75064D   26256.86854095  .00000107  00000-0  51414-4 0  9995
2 08110  81.3478  37.1688 0034248 116.2844 244.1854 14.11496774634053

Traccia SL-3 DEB in tempo reale con AllMySat

Download on the App Store